www.cux-wetter.de
Wetterdaten: Sonntag, 30.09.2012
Datum Zeit Temp. A. Feuchte A. Luftdruck Regen Wind Richtung Richtung Sonnenschein Solar Taupunkt Windchill Windben
30.09.2012 00:00 11,8 C 89 % 1013,5 hPa 1,5 l/m 35,3 km/h (5 Bft) W 275 0 min 0 W/m 10,0 C 2,2 C 35,3 km/h (5 Bft)
30.09.2012 00:15 11,8 C 89 % 1013,5 hPa 0,0 l/m 35,3 km/h (5 Bft) W 275 0 min 0 W/m 10,0 C 2,2 C 35,3 km/h (5 Bft)
30.09.2012 00:30 11,8 C 89 % 1013,5 hPa 0,3 l/m 24,5 km/h (4 Bft) NW 320 0 min 0 W/m 10,0 C 4,4 C 24,5 km/h (4 Bft)
30.09.2012 00:45 11,8 C 89 % 1014,5 hPa 0,0 l/m 24,5 km/h (4 Bft) NW 320 0 min 0 W/m 10,0 C 4,4 C 24,5 km/h (4 Bft)
30.09.2012 01:00 12,0 C 89 % 1014,5 hPa 0,0 l/m 24,5 km/h (4 Bft) NW 320 0 min 0 W/m 10,2 C 4,7 C 24,5 km/h (4 Bft)
30.09.2012 01:15 12,1 C 88 % 1014,5 hPa 0,0 l/m 24,5 km/h (4 Bft) NW 320 0 min 0 W/m 10,2 C 4,8 C 24,5 km/h (4 Bft)
30.09.2012 01:30 12,0 C 89 % 1014,5 hPa 0,0 l/m 24,5 km/h (4 Bft) NW 320 0 min 0 W/m 10,2 C 4,7 C 24,5 km/h (4 Bft)
30.09.2012 01:45 11,8 C 89 % 1014,5 hPa 0,0 l/m 20,8 km/h (4 Bft) W 275 0 min 0 W/m 10,0 C 5,4 C 20,8 km/h (4 Bft)
30.09.2012 02:00 11,7 C 89 % 1014,5 hPa 0,3 l/m 20,8 km/h (4 Bft) W 275 0 min 0 W/m 9,9 C 5,2 C 20,8 km/h (4 Bft)
30.09.2012 02:15 11,6 C 90 % 1014,5 hPa 0,0 l/m 20,8 km/h (4 Bft) W 275 0 min 0 W/m 10,0 C 5,1 C 20,8 km/h (4 Bft)
30.09.2012 02:30 11,7 C 90 % 1014,5 hPa 0,0 l/m 20,8 km/h (4 Bft) W 275 0 min 0 W/m 10,1 C 5,2 C 20,8 km/h (4 Bft)
30.09.2012 02:45 11,8 C 90 % 1014,5 hPa 0,0 l/m 20,8 km/h (4 Bft) W 275 0 min 0 W/m 10,2 C 5,4 C 20,8 km/h (4 Bft)
30.09.2012 03:00 11,7 C 90 % 1014,5 hPa 0,0 l/m 20,8 km/h (4 Bft) W 275 0 min 0 W/m 10,1 C 5,2 C 20,8 km/h (4 Bft)
30.09.2012 03:15 11,8 C 90 % 1014,5 hPa 0,0 l/m 30,0 km/h (5 Bft) W 275 0 min 0 W/m 10,2 C 3,2 C 30,0 km/h (5 Bft)
30.09.2012 03:30 11,7 C 90 % 1014,5 hPa 0,3 l/m 30,0 km/h (5 Bft) W 275 0 min 0 W/m 10,1 C 3,0 C 30,0 km/h (5 Bft)
30.09.2012 03:45 11,7 C 90 % 1014,5 hPa 0,0 l/m 30,0 km/h (5 Bft) W 275 0 min 0 W/m 10,1 C 3,0 C 30,0 km/h (5 Bft)
30.09.2012 04:00 11,6 C 89 % 1015,5 hPa 0,0 l/m 30,0 km/h (5 Bft) W 275 0 min 0 W/m 9,8 C 2,9 C 30,0 km/h (5 Bft)
30.09.2012 04:15 11,5 C 89 % 1015,5 hPa 0,0 l/m 30,0 km/h (5 Bft) W 275 0 min 0 W/m 9,8 C 2,8 C 30,0 km/h (5 Bft)
30.09.2012 04:30 11,4 C 89 % 1015,5 hPa 0,0 l/m 30,0 km/h (5 Bft) W 275 0 min 0 W/m 9,7 C 2,6 C 30,0 km/h (5 Bft)
30.09.2012 04:45 11,5 C 90 % 1015,5 hPa 0,0 l/m 30,0 km/h (5 Bft) W 275 0 min 0 W/m 9,9 C 2,8 C 30,0 km/h (5 Bft)
30.09.2012 05:00 11,5 C 89 % 1015,5 hPa 0,0 l/m 30,0 km/h (5 Bft) W 275 0 min 0 W/m 9,8 C 2,8 C 30,0 km/h (5 Bft)
30.09.2012 05:15 11,4 C 89 % 1015,5 hPa 0,0 l/m 30,0 km/h (5 Bft) W 275 0 min 0 W/m 9,7 C 2,6 C 30,0 km/h (5 Bft)
30.09.2012 05:30 11,3 C 88 % 1015,5 hPa 0,0 l/m 26,3 km/h (4 Bft) W 270 0 min 0 W/m 9,4 C 3,3 C 26,3 km/h (4 Bft)
30.09.2012 05:45 11,3 C 88 % 1015,5 hPa 0,0 l/m 26,3 km/h (4 Bft) W 270 0 min 0 W/m 9,4 C 3,3 C 26,3 km/h (4 Bft)
30.09.2012 06:00 11,2 C 88 % 1015,5 hPa 0,0 l/m 26,3 km/h (4 Bft) W 270 0 min 0 W/m 9,3 C 3,1 C 26,3 km/h (4 Bft)
30.09.2012 06:15 11,2 C 88 % 1015,5 hPa 0,0 l/m 26,3 km/h (4 Bft) W 270 0 min 0 W/m 9,3 C 3,1 C 26,3 km/h (4 Bft)
30.09.2012 06:30 11,1 C 88 % 1015,5 hPa 0,0 l/m 26,3 km/h (4 Bft) W 270 0 min 0 W/m 9,2 C 3,0 C 26,3 km/h (4 Bft)
30.09.2012 06:45 11,0 C 88 % 1015,5 hPa 0,0 l/m 29,4 km/h (5 Bft) W 265 0 min 0 W/m 9,1 C 2,2 C 29,4 km/h (5 Bft)
30.09.2012 07:00 10,8 C 89 % 1015,5 hPa 0,0 l/m 29,4 km/h (5 Bft) W 265 0 min 0 W/m 9,1 C 1,9 C 29,4 km/h (5 Bft)
30.09.2012 07:15 10,8 C 89 % 1015,5 hPa 0,0 l/m 23,8 km/h (4 Bft) W 275 0 min 0 W/m 9,1 C 3,2 C 23,8 km/h (4 Bft)
30.09.2012 07:30 10,7 C 89 % 1015,5 hPa 0,0 l/m 27,3 km/h (5 Bft) W 270 0 min 0 W/m 9,0 C 2,2 C 27,3 km/h (5 Bft)
30.09.2012 07:45 10,6 C 89 % 1015,5 hPa 0,0 l/m 26,4 km/h (4 Bft) W 270 0 min 0 W/m 8,9 C 2,3 C 26,4 km/h (4 Bft)
30.09.2012 08:00 10,5 C 89 % 1016,5 hPa 0,0 l/m 26,7 km/h (4 Bft) W 260 0 min 0 W/m 8,8 C 2,1 C 26,7 km/h (4 Bft)
30.09.2012 08:15 10,5 C 89 % 1016,5 hPa 0,0 l/m 26,8 km/h (4 Bft) W 275 0 min 0 W/m 8,8 C 2,1 C 26,8 km/h (4 Bft)
30.09.2012 08:30 10,7 C 89 % 1016,5 hPa 0,0 l/m 25,0 km/h (4 Bft) W 275 0 min 0 W/m 9,0 C 2,8 C 25,0 km/h (4 Bft)
30.09.2012 08:45 10,7 C 89 % 1016,5 hPa 0,0 l/m 23,9 km/h (4 Bft) W 265 0 min 0 W/m 9,0 C 3,1 C 23,9 km/h (4 Bft)
30.09.2012 09:00 10,7 C 90 % 1016,5 hPa 0,0 l/m 25,6 km/h (4 Bft) W 270 0 min 0 W/m 9,1 C 2,6 C 25,6 km/h (4 Bft)
30.09.2012 09:15 10,8 C 90 % 1016,5 hPa 0,0 l/m 28,8 km/h (5 Bft) W 260 0 min 0 W/m 9,2 C 2,0 C 28,8 km/h (5 Bft)
30.09.2012 09:30 11,0 C 90 % 1016,5 hPa 0,0 l/m 28,5 km/h (5 Bft) W 275 0 min 0 W/m 9,4 C 2,4 C 28,5 km/h (5 Bft)
30.09.2012 09:45 11,1 C 89 % 1016,5 hPa 0,0 l/m 29,5 km/h (5 Bft) W 275 0 min 0 W/m 9,4 C 2,3 C 29,5 km/h (5 Bft)
30.09.2012 10:00 11,4 C 89 % 1017,5 hPa 0,0 l/m 25,6 km/h (4 Bft) W 260 0 min 0 W/m 9,7 C 3,6 C 25,6 km/h (4 Bft)
30.09.2012 10:15 11,6 C 88 % 1017,5 hPa 0,0 l/m 25,1 km/h (4 Bft) W 270 0 min 0 W/m 9,7 C 4,0 C 25,1 km/h (4 Bft)
30.09.2012 10:30 11,8 C 87 % 1017,5 hPa 0,0 l/m 25,1 km/h (4 Bft) W 270 0 min 0 W/m 9,7 C 4,2 C 25,1 km/h (4 Bft)
30.09.2012 10:45 12,3 C 85 % 1017,5 hPa 0,0 l/m 25,1 km/h (4 Bft) W 270 0 min 0 W/m 9,9 C 4,9 C 25,1 km/h (4 Bft)
30.09.2012 11:00 12,9 C 84 % 1017,5 hPa 0,0 l/m 25,1 km/h (4 Bft) W 270 0 min 0 W/m 10,3 C 5,7 C 25,1 km/h (4 Bft)
30.09.2012 11:15 13,2 C 81 % 1017,5 hPa 0,0 l/m 25,1 km/h (4 Bft) W 270 0 min 0 W/m 10,0 C 6,1 C 25,1 km/h (4 Bft)
30.09.2012 11:30 13,6 C 79 % 1017,5 hPa 0,0 l/m 25,1 km/h (4 Bft) W 270 0 min 0 W/m 10,0 C 6,7 C 25,1 km/h (4 Bft)
30.09.2012 11:45 13,9 C 77 % 1017,5 hPa 0,0 l/m 25,1 km/h (4 Bft) W 270 0 min 0 W/m 9,9 C 7,1 C 25,1 km/h (4 Bft)
30.09.2012 12:00 14,1 C 77 % 1017,5 hPa 0,0 l/m 30,2 km/h (5 Bft) W 270 0 min 0 W/m 10,1 C 6,4 C 30,2 km/h (5 Bft)
30.09.2012 12:15 14,5 C 75 % 1017,5 hPa 0,0 l/m 30,2 km/h (5 Bft) W 270 0 min 0 W/m 10,1 C 7,0 C 30,2 km/h (5 Bft)
30.09.2012 12:29 14,6 C 75 % 1017,5 hPa 0,0 l/m 30,2 km/h (5 Bft) W 270 0 min 0 W/m 10,2 C 7,1 C 30,2 km/h (5 Bft)
30.09.2012 12:45 15,0 C 73 % 1017,5 hPa 0,0 l/m 30,2 km/h (5 Bft) W 270 0 min 0 W/m 10,2 C 7,7 C 30,2 km/h (5 Bft)
30.09.2012 13:00 15,0 C 72 % 1017,5 hPa 0,0 l/m 29,6 km/h (5 Bft) W 260 0 min 0 W/m 10,0 C 7,8 C 29,6 km/h (5 Bft)
30.09.2012 13:15 15,2 C 73 % 1017,5 hPa 0,0 l/m 30,2 km/h (5 Bft) W 270 0 min 0 W/m 10,4 C 7,9 C 30,2 km/h (5 Bft)
30.09.2012 13:30 15,4 C 70 % 1017,5 hPa 0,0 l/m 29,8 km/h (5 Bft) W 270 0 min 0 W/m 10,0 C 8,3 C 29,8 km/h (5 Bft)
30.09.2012 13:45 15,7 C 68 % 1017,5 hPa 0,0 l/m 29,8 km/h (5 Bft) W 270 0 min 0 W/m 9,8 C 8,7 C 29,8 km/h (5 Bft)
30.09.2012 14:00 15,6 C 68 % 1017,5 hPa 0,0 l/m 29,9 km/h (5 Bft) W 260 0 min 0 W/m 9,7 C 8,5 C 29,9 km/h (5 Bft)
30.09.2012 14:15 15,8 C 66 % 1017,5 hPa 0,0 l/m 33,8 km/h (5 Bft) W 275 0 min 0 W/m 9,5 C 8,3 C 33,8 km/h (5 Bft)
30.09.2012 14:30 16,1 C 66 % 1017,5 hPa 0,0 l/m 24,9 km/h (4 Bft) W 270 0 min 0 W/m 9,7 C 10,1 C 24,9 km/h (4 Bft)
30.09.2012 14:45 16,1 C 67 % 1017,5 hPa 0,0 l/m 26,4 km/h (4 Bft) W 280 0 min 0 W/m 10,0 C 9,8 C 26,4 km/h (4 Bft)
30.09.2012 15:00 16,4 C 67 % 1017,5 hPa 0,0 l/m 23,9 km/h (4 Bft) W 260 0 min 0 W/m 10,3 C 10,7 C 23,9 km/h (4 Bft)
30.09.2012 15:15 16,4 C 67 % 1017,5 hPa 0,0 l/m 29,4 km/h (5 Bft) W 270 0 min 0 W/m 10,3 C 9,7 C 29,4 km/h (5 Bft)
30.09.2012 15:30 16,4 C 68 % 1016,5 hPa 0,0 l/m 28,5 km/h (5 Bft) W 275 0 min 0 W/m 10,5 C 9,9 C 28,5 km/h (5 Bft)
30.09.2012 15:45 16,4 C 65 % 1016,5 hPa 0,0 l/m 30,7 km/h (5 Bft) W 265 0 min 0 W/m 9,8 C 9,6 C 30,7 km/h (5 Bft)
30.09.2012 16:00 16,3 C 65 % 1016,5 hPa 0,0 l/m 32,0 km/h (5 Bft) W 275 0 min 0 W/m 9,7 C 9,2 C 32,0 km/h (5 Bft)
30.09.2012 16:15 16,2 C 67 % 1016,5 hPa 0,0 l/m 28,2 km/h (5 Bft) W 280 0 min 0 W/m 10,1 C 9,7 C 28,2 km/h (5 Bft)
30.09.2012 16:30 16,0 C 67 % 1016,5 hPa 0,0 l/m 31,5 km/h (5 Bft) W 275 0 min 0 W/m 9,9 C 8,9 C 31,5 km/h (5 Bft)
30.09.2012 16:45 15,8 C 68 % 1016,5 hPa 0,0 l/m 25,6 km/h (4 Bft) W 275 0 min 0 W/m 9,9 C 9,6 C 25,6 km/h (4 Bft)
30.09.2012 17:00 15,7 C 69 % 1016,5 hPa 0,0 l/m 25,6 km/h (4 Bft) W 270 0 min 0 W/m 10,0 C 9,4 C 25,6 km/h (4 Bft)
30.09.2012 17:15 15,6 C 69 % 1016,5 hPa 0,0 l/m 26,2 km/h (4 Bft) W 265 0 min 0 W/m 9,9 C 9,2 C 26,2 km/h (4 Bft)
30.09.2012 17:29 15,3 C 69 % 1016,5 hPa 0,0 l/m 26,0 km/h (4 Bft) W 270 0 min 0 W/m 9,6 C 8,8 C 26,0 km/h (4 Bft)
30.09.2012 17:45 15,0 C 70 % 1016,5 hPa 0,0 l/m 22,0 km/h (4 Bft) W 260 0 min 0 W/m 9,6 C 9,3 C 22,0 km/h (4 Bft)
30.09.2012 18:00 15,0 C 72 % 1016,5 hPa 0,0 l/m 23,3 km/h (4 Bft) W 260 0 min 0 W/m 10,0 C 9,0 C 23,3 km/h (4 Bft)
30.09.2012 18:15 14,6 C 73 % 1016,5 hPa 0,0 l/m 17,0 km/h (3 Bft) W 260 0 min 0 W/m 9,8 C 10,1 C 17,0 km/h (3 Bft)
30.09.2012 18:30 14,4 C 73 % 1016,5 hPa 0,0 l/m 17,5 km/h (3 Bft) W 260 0 min 0 W/m 9,6 C 9,7 C 17,5 km/h (3 Bft)
30.09.2012 18:45 14,2 C 73 % 1016,5 hPa 0,0 l/m 21,3 km/h (4 Bft) W 260 0 min 0 W/m 9,4 C 8,4 C 21,3 km/h (4 Bft)
30.09.2012 19:00 14,1 C 74 % 1016,5 hPa 0,0 l/m 15,8 km/h (3 Bft) W 265 0 min 0 W/m 9,5 C 9,8 C 15,8 km/h (3 Bft)
30.09.2012 19:15 13,9 C 74 % 1016,5 hPa 0,0 l/m 15,5 km/h (3 Bft) W 265 0 min 0 W/m 9,3 C 9,7 C 15,5 km/h (3 Bft)
30.09.2012 19:30 13,7 C 75 % 1016,5 hPa 0,0 l/m 10,1 km/h (2 Bft) SW 220 0 min 0 W/m 9,3 C 11,6 C 10,1 km/h (2 Bft)
30.09.2012 19:45 13,6 C 75 % 1016,5 hPa 0,0 l/m 7,6 km/h (2 Bft) SW 215 0 min 0 W/m 9,3 C 12,9 C 7,6 km/h (2 Bft)
30.09.2012 20:00 13,6 C 76 % 1016,5 hPa 0,0 l/m 9,1 km/h (2 Bft) S-SW 195 0 min 0 W/m 9,4 C 12,0 C 9,1 km/h (2 Bft)
30.09.2012 20:15 13,4 C 76 % 1016,5 hPa 0,0 l/m 9,0 km/h (2 Bft) W-SW 240 0 min 0 W/m 9,3 C 11,9 C 9,0 km/h (2 Bft)
30.09.2012 20:30 13,3 C 76 % 1016,5 hPa 0,0 l/m 8,9 km/h (2 Bft) SW 225 0 min 0 W/m 9,2 C 11,8 C 8,9 km/h (2 Bft)
30.09.2012 20:45 13,1 C 76 % 1016,5 hPa 0,0 l/m 12,9 km/h (3 Bft) W-SW 240 0 min 0 W/m 9,0 C 9,7 C 12,9 km/h (3 Bft)
30.09.2012 21:00 13,0 C 76 % 1016,5 hPa 0,0 l/m 18,8 km/h (3 Bft) W 260 0 min 0 W/m 8,9 C 7,5 C 18,8 km/h (3 Bft)
30.09.2012 21:15 12,8 C 76 % 1016,5 hPa 0,0 l/m 18,9 km/h (3 Bft) W 270 0 min 0 W/m 8,7 C 7,2 C 18,9 km/h (3 Bft)
30.09.2012 21:30 12,8 C 76 % 1016,5 hPa 0,0 l/m 15,9 km/h (3 Bft) W-SW 255 0 min 0 W/m 8,7 C 8,2 C 15,9 km/h (3 Bft)
30.09.2012 21:45 12,6 C 76 % 1016,5 hPa 0,0 l/m 16,8 km/h (3 Bft) W 265 0 min 0 W/m 8,5 C 7,6 C 16,8 km/h (3 Bft)
30.09.2012 22:00 12,5 C 76 % 1016,5 hPa 0,0 l/m 19,1 km/h (3 Bft) W 265 0 min 0 W/m 8,4 C 6,8 C 19,1 km/h (3 Bft)
30.09.2012 22:15 12,5 C 76 % 1016,5 hPa 0,0 l/m 17,9 km/h (3 Bft) W 260 0 min 0 W/m 8,4 C 7,2 C 17,9 km/h (3 Bft)
30.09.2012 22:30 12,4 C 76 % 1016,5 hPa 0,0 l/m 13,5 km/h (3 Bft) W 260 0 min 0 W/m 8,3 C 8,6 C 13,5 km/h (3 Bft)
30.09.2012 22:44 12,4 C 77 % 1016,5 hPa 0,0 l/m 18,3 km/h (3 Bft) W-SW 255 0 min 0 W/m 8,5 C 6,9 C 18,3 km/h (3 Bft)
30.09.2012 23:00 12,2 C 77 % 1016,5 hPa 0,0 l/m 13,6 km/h (3 Bft) W 260 0 min 0 W/m 8,3 C 8,4 C 13,6 km/h (3 Bft)
30.09.2012 23:15 12,1 C 77 % 1016,5 hPa 0,0 l/m 17,3 km/h (3 Bft) W-SW 245 0 min 0 W/m 8,2 C 6,9 C 17,3 km/h (3 Bft)
30.09.2012 23:30 12,0 C 77 % 1015,5 hPa 0,0 l/m 17,5 km/h (3 Bft) W-SW 250 0 min 0 W/m 8,1 C 6,7 C 17,5 km/h (3 Bft)
30.09.2012 23:45 11,9 C 77 % 1015,5 hPa 0,0 l/m 17,6 km/h (3 Bft) W-SW 250 0 min 0 W/m 8,0 C 6,5 C 17,6 km/h (3 Bft)
_ Min-Zeit 08:00 15:45 00:00 - 19:45 - - - - 23:45 07:00 19:45
Minimum _ 10,5 C 65 % 1013,5 hPa - 7,6 km/h (2 Bft) - - - - 8,0 C 1,9 C 7,6 km/h (2 Bft)
_ Max-Zeit 15:00 02:15 10:00 00:00 00:00 - - 00:00 00:00 15:30 19:45 00:00
Maximum _ 16,4 C 90 % 1017,5 hPa 1,5 l/m 35,3 km/h
W (5 Bft)
- - 0 min 0 W/m 10,5 C 12,9 C 35,3 km/h
W (5 Bft)
Durchschnitt _ 13,0 C 80 % 1016,2 hPa #2,4 l/m 24,2 km/h (4 Bft) W - #0 min. 0 W/m 9,5 C 6,3 C 24,2 km/h (4 Bft)
copyright by Holger Just